When you browse on this site, cookies collect data to enhance your experience and personalize the content and advertising you see.
Visit our Privacy Policy to learn more. By continuing to use the site, you agree to this use of cookies and data.
  • In Hungary
  • List of Countries
  • For 7 days
  • Water Temperature
  • Weather Map
  • News
  • Weather Widgets
  • user-avatar
    Login

    Hourly Weather Khyzhky

    Today, 6 April, Monday

    Time Temperature Precipitation Wind Pressure Humidity
    00:00 +1°C° 0 mm 3 mps 762 mmHg 62%
    01:00 +1°C° 0 mm 3 mps 762 mmHg 63%
    02:00 +2°C° 0 mm 2 mps 763 mmHg 65%
    03:00 +1°C° 0 mm 2 mps 763 mmHg 66%
    04:00 0°C° 0 mm 3 mps 763 mmHg 68%
    05:00 -1°C° 0 mm 3 mps 763 mmHg 69%
    06:00 +1°C° 0 mm 3 mps 763 mmHg 64%
    07:00 +2°C° 0 mm 3 mps 764 mmHg 60%
    08:00 +4°C° 0 mm 3 mps 764 mmHg 55%
    09:00 +5°C° 0 mm 3 mps 764 mmHg 49%
    10:00 +8°C° 0 mm 3 mps 764 mmHg 42%
    11:00 +8°C° 0 mm 4 mps 765 mmHg 35%
    12:00 +10°C° 0 mm 4 mps 764 mmHg 34%
    13:00 +9°C° 0 mm 5 mps 764 mmHg 34%
    14:00 +10°C° 0 mm 5 mps 764 mmHg 33%
    15:00 +10°C° 0 mm 5 mps 764 mmHg 37%
    16:00 +10°C° 0 mm 5 mps 764 mmHg 41%
    17:00 +9°C° 0 mm 5 mps 764 mmHg 45%
    18:00 +8°C° 0 mm 4 mps 764 mmHg 52%
    19:00 +8°C° 0 mm 3 mps 764 mmHg 58%
    20:00 +7°C° 0 mm 3 mps 764 mmHg 65%
    21:00 +6°C° 0 mm 2 mps 764 mmHg 68%
    22:00 +6°C° 0 mm 2 mps 764 mmHg 71%
    23:00 +5°C° 0 mm 2 mps 764 mmHg 74%

    Tomorrow, 7 April, Tuesday

    Time Temperature Precipitation Wind Pressure Humidity
    00:00 +5°C° 0 mm 2 mps 764 mmHg 76%
    01:00 +5°C° 0 mm 2 mps 764 mmHg 77%
    02:00 +4°C° 0 mm 2 mps 764 mmHg 79%
    03:00 +4°C° 0 mm 2 mps 764 mmHg 80%
    04:00 +4°C° 0 mm 2 mps 764 mmHg 82%
    05:00 +3°C° 0 mm 2 mps 765 mmHg 84%
    06:00 +5°C° 0 mm 2 mps 765 mmHg 80%
    07:00 +6°C° 0 mm 2 mps 765 mmHg 75%
    08:00 +7°C° 0 mm 2 mps 765 mmHg 71%
    09:00 +10°C° 0 mm 1 mps 765 mmHg 65%
    10:00 +11°C° 0 mm 1 mps 765 mmHg 60%
    11:00 +12°C° 0 mm 1 mps 765 mmHg 54%
    12:00 +13°C° 0 mm 1 mps 765 mmHg 51%
    13:00 +13°C° 0 mm 1 mps 765 mmHg 48%
    14:00 +14°C° 0 mm 1 mps 765 mmHg 45%
    15:00 +14°C° 0 mm 1 mps 764 mmHg 46%
    16:00 +14°C° 0 mm 1 mps 764 mmHg 46%
    17:00 +14°C° 0 mm 2 mps 763 mmHg 47%
    18:00 +13°C° 0 mm 2 mps 763 mmHg 51%
    19:00 +10°C° 0 mm 2 mps 763 mmHg 54%
    20:00 +9°C° 0 mm 2 mps 763 mmHg 57%
    21:00 +9°C° 0 mm 2 mps 762 mmHg 59%
    22:00 +8°C° 0 mm 3 mps 762 mmHg 61%
    23:00 +8°C° 0 mm 3 mps 762 mmHg 63%

    Day after tomorrow, 8 April, Wednesday

    Time Temperature Precipitation Wind Pressure Humidity
    00:00 +7°C° 0 mm 3 mps 762 mmHg 64%
    01:00 +6°C° 0 mm 4 mps 761 mmHg 65%
    02:00 +5°C° 0 mm 4 mps 761 mmHg 66%
    03:00 +5°C° 0 mm 4 mps 760 mmHg 66%
    04:00 +5°C° 0 mm 4 mps 760 mmHg 66%
    05:00 +5°C° 0 mm 4 mps 760 mmHg 66%
    06:00 +6°C° 0 mm 5 mps 759 mmHg 61%
    07:00 +7°C° 0 mm 5 mps 758 mmHg 57%
    08:00 +9°C° 0 mm 6 mps 758 mmHg 52%
    09:00 +11°C° 0 mm 6 mps 758 mmHg 49%
    10:00 +13°C° 0 mm 6 mps 757 mmHg 46%
    11:00 +15°C° 0 mm 7 mps 757 mmHg 43%
    12:00 +15°C° 0 mm 7 mps 757 mmHg 46%
    13:00 +16°C° 0 mm 7 mps 756 mmHg 48%
    14:00 +16°C° 0 mm 7 mps 756 mmHg 50%
    15:00 +16°C° 0 mm 6 mps 756 mmHg 50%
    16:00 +15°C° 0 mm 5 mps 756 mmHg 51%
    17:00 +15°C° 0 mm 5 mps 755 mmHg 52%
    18:00 +13°C° 0 mm 4 mps 755 mmHg 58%
    19:00 +11°C° 0 mm 3 mps 755 mmHg 64%
    20:00 +10°C° 0 mm 3 mps 755 mmHg 71%
    21:00 +9°C° 0 mm 2 mps 755 mmHg 72%
    22:00 +8°C° 0 mm 2 mps 756 mmHg 74%
    23:00 +8°C° 0 mm 2 mps 756 mmHg 76%

    9 April, Thursday

    Time Temperature Precipitation Wind Pressure Humidity
    00:00 +8°C° 0 mm 1 mps 756 mmHg 78%
    01:00 +8°C° 0 mm 1 mps 756 mmHg 80%
    02:00 +7°C° 0 mm 1 mps 755 mmHg 82%
    03:00 +6°C° 0 mm 0 mps 755 mmHg 83%
    04:00 +6°C° 0 mm 0 mps 755 mmHg 83%
    05:00 +5°C° 0 mm 0 mps 755 mmHg 84%
    06:00 +8°C° 0 mm 1 mps 755 mmHg 77%
    07:00 +9°C° 0 mm 1 mps 755 mmHg 71%
    08:00 +11°C° 0 mm 1 mps 755 mmHg 65%
    09:00 +12°C° 0 mm 2 mps 754 mmHg 58%
    10:00 +14°C° 0 mm 2 mps 754 mmHg 52%
    11:00 +15°C° 0 mm 2 mps 754 mmHg 46%
    12:00 +16°C° 0 mm 3 mps 753 mmHg 43%
    13:00 +17°C° 0 mm 3 mps 753 mmHg 41%
    14:00 +18°C° 0 mm 3 mps 752 mmHg 38%
    15:00 +18°C° 0 mm 3 mps 752 mmHg 40%
    16:00 +17°C° 0 mm 3 mps 751 mmHg 42%
    17:00 +17°C° 0 mm 3 mps 751 mmHg 44%
    18:00 +16°C° 0 mm 3 mps 751 mmHg 47%
    19:00 +14°C° 0 mm 2 mps 751 mmHg 51%
    20:00 +13°C° 0 mm 2 mps 750 mmHg 54%
    21:00 +13°C° 0 mm 2 mps 750 mmHg 56%
    22:00 +12°C° 0 mm 3 mps 750 mmHg 57%
    23:00 +12°C° 0 mm 3 mps 749 mmHg 58%

    10 April, Friday

    Time Temperature Precipitation Wind Pressure Humidity
    00:00 +12°C° 0 mm 3 mps 749 mmHg 61%
    01:00 +11°C° 0 mm 3 mps 748 mmHg 64%
    02:00 +11°C° 0 mm 3 mps 748 mmHg 66%
    03:00 +11°C° 0 mm 3 mps 747 mmHg 68%
    04:00 +10°C° 0 mm 3 mps 747 mmHg 70%
    05:00 +10°C° 0 mm 3 mps 747 mmHg 72%
    06:00 +10°C° 0 mm 4 mps 747 mmHg 70%
    07:00 +11°C° 0 mm 4 mps 747 mmHg 68%
    08:00 +12°C° 0 mm 4 mps 747 mmHg 65%
    09:00 +12°C° 0.4 mm 4 mps 747 mmHg 68%
    10:00 +12°C° 0.4 mm 4 mps 747 mmHg 71%
    11:00 +12°C° 0.4 mm 4 mps 747 mmHg 73%
    12:00 +11°C° 0.7 mm 4 mps 747 mmHg 72%
    13:00 +10°C° 0.7 mm 5 mps 747 mmHg 70%
    14:00 +9°C° 0.7 mm 5 mps 747 mmHg 69%
    15:00 +9°C° 0 mm 6 mps 747 mmHg 65%
    16:00 +9°C° 0 mm 6 mps 748 mmHg 61%
    17:00 +10°C° 0 mm 7 mps 748 mmHg 56%
    18:00 +8°C° 0 mm 6 mps 749 mmHg 58%
    19:00 +7°C° 0 mm 5 mps 749 mmHg 59%
    20:00 +6°C° 0 mm 4 mps 750 mmHg 61%
    21:00 +5°C° 0 mm 4 mps 750 mmHg 62%
    22:00 +5°C° 0 mm 3 mps 751 mmHg 64%
    23:00 +4°C° 0 mm 3 mps 751 mmHg 65%

    11 April, Saturday

    Time Temperature Precipitation Wind Pressure Humidity
    00:00 +3°C° 0 mm 3 mps 751 mmHg 66%
    01:00 +3°C° 0 mm 3 mps 751 mmHg 68%
    02:00 +3°C° 0 mm 3 mps 751 mmHg 70%
    03:00 +2°C° 0 mm 3 mps 752 mmHg 72%
    04:00 +2°C° 0 mm 3 mps 752 mmHg 74%
    05:00 +3°C° 0 mm 2 mps 752 mmHg 76%
    06:00 +3°C° 0 mm 3 mps 753 mmHg 71%
    07:00 +5°C° 0 mm 3 mps 753 mmHg 67%
    08:00 +6°C° 0 mm 4 mps 753 mmHg 62%
    09:00 +7°C° 0 mm 4 mps 753 mmHg 57%
    10:00 +8°C° 0 mm 5 mps 753 mmHg 53%
    11:00 +10°C° 0 mm 6 mps 753 mmHg 48%
    12:00 +10°C° 0 mm 6 mps 753 mmHg 47%
    13:00 +10°C° 0 mm 6 mps 753 mmHg 47%
    14:00 +10°C° 0 mm 6 mps 753 mmHg 46%
    15:00 +10°C° 0 mm 5 mps 753 mmHg 47%
    16:00 +10°C° 0 mm 5 mps 753 mmHg 48%
    17:00 +11°C° 0 mm 4 mps 753 mmHg 49%
    18:00 +10°C° 0 mm 3 mps 753 mmHg 53%
    19:00 +8°C° 0 mm 2 mps 754 mmHg 57%
    20:00 +8°C° 0 mm 1 mps 754 mmHg 61%
    21:00 +8°C° 0 mm 1 mps 754 mmHg 59%
    22:00 +7°C° 0 mm 1 mps 755 mmHg 56%
    23:00 +7°C° 0 mm 1 mps 755 mmHg 53%
    Show more